Location: Arcones
(41.1182°N, 3.7238°W)
Time: 22:48:42
(UTC+00:00)

Cosmos 2219 - Pass Details

Date: 11 December 2025
Orbit: 831 x 860 km, 71.1° (Epoch: 14 January)

Event Time Altitude Azimuth Distance (km) Brightness Sun altitude
Rises 18:06:52 0° 343° (NNW) 3,434 6.4 -14.7°
Reaches altitude 10° 18:09:34 10° 353° (N) 2,498 5.5 -15.1°
Maximum altitude 18:14:46 34° 58° (ENE) 1,376 3.8 -16.1°
Enters shadow 18:18:20 18° 112° (ESE) 1,982 4.7 -16.7°
